Home > Weather > St. Paul > Past weeks

Flag for USA Past Weather in St. Paul, Minnesota, USA — Yesterday and Last 2 Weeks

Now
62 °F

Clear.


Feels Like: 62 °F
Forecast: 57 / 66 °F
Wind: 7 mph from Southeast

Location: St. Paul Downtown Holman Field

Current Time: Jun 1, 2016 at 12:46:03 AM

Latest Report: May 31, 2016 at 11:53 PM


Visibility: 9 mi

Pressure: 29.84 "Hg

Humidity: 93%

Dew Point: 60 °F

Location of St. PaulLocation

Past Weather in St. Paul — Graph

°F

St. Paul Temperature Yesterday

Maximum temperature yesterday: 71 °F (at 6:53 PM)
Minimum temperature yesterday: 63 °F (at 8:53 AM)
Average temperature yesterday: 68 °F

High & Low Weather Summary for the Past Weeks

 TemperatureHumidityPressure
High84 °F (May 22, 2:53 PM)100% (May 30, 3:55 AM)30.36 "Hg (May 30, 3:55 AM)
Low42 °F (May 18, 5:53 AM)20% (May 22, 3:53 PM)29.69 "Hg (May 26, 4:53 AM)
Average66 °F63%29.96 "Hg
* Reported May 16 10:53 PM — May 31 10:53 PM, St. Paul, Weather by CustomWeather, © 2016

Note: Actual official high and low records may vary slightly from our data, if they occured in-between our weather recording intervals... More about our weather records

Advertising

St. Paul Weather History for the Previous 24 Hours

Scroll right to see more
 ConditionsComfort  
Time TempWeatherWind HumidityBarometerVisibility
10:53 PM
Tue, May 31
63 °FClear.7 mph93%29.85 "Hg10 mi
9:53 PM65 °FPassing clouds.9 mph87%29.85 "Hg10 mi
8:53 PM67 °FSunny.8 mph81%29.83 "Hg10 mi
7:53 PM70 °FSunny.7 mph73%29.83 "Hg10 mi
6:53 PM71 °FSunny.6 mph73%29.82 "Hg10 mi
5:53 PM69 °FSunny.8 mph79%29.81 "Hg10 mi
4:53 PM70 °FSunny.6 mph76%29.83 "Hg10 mi
3:53 PM69 °FMostly cloudy.10 mph79%29.85 "Hg10 mi
2:53 PM70 °FLight rain. Overcast.6 mph76%29.83 "Hg10 mi
1:53 PM70 °FPartly sunny.9 mph76%29.85 "Hg10 mi
12:53 PM69 °FMostly cloudy.7 mph81%29.86 "Hg10 mi
11:53 AM68 °FMostly cloudy.9 mph84%29.86 "Hg10 mi
10:53 AM68 °FPartly sunny.9 mph82%29.86 "Hg10 mi
9:53 AM66 °FPartly sunny.10 mph90%29.87 "Hg10 mi
8:53 AM63 °FLight rain. Overcast.14 mph93%29.87 "Hg8 mi
7:53 AM65 °FLight rain. More clouds than sun.14 mph78%29.87 "Hg7 mi
6:53 AM66 °FSunny.8 mph73%29.85 "Hg10 mi
5:53 AM65 °FPassing clouds.6 mph76%29.85 "Hg10 mi
4:53 AM67 °FPassing clouds.12 mph71%29.85 "Hg10 mi
3:53 AM67 °FPassing clouds.9 mph71%29.83 "Hg10 mi
2:53 AM68 °FClear.15 mph68%29.83 "Hg10 mi
1:53 AM69 °FPassing clouds.15 mph68%29.85 "Hg10 mi
12:53 AM70 °FPassing clouds.14 mph66%29.87 "Hg10 mi
Weather by CustomWeather, © 2016

See weather overviewHow to use our weather pages